Meteo Giornale » Osservazioni meteo Israele » Ben-Gurion

ore: 08:50 - Osservazioni Meteo Ben-Gurion
Lat. 32° 0' N Lon. 34° 54' E Alt. 40 metri s.l.m.

poco_nuvoloso

29 °C

Poco Nuvoloso

Temp. 24 Ore

26 °C

32 °C

Nord

5.5 Km/h

Dew point 22 °C

Umidità 66 %

Visibilità  10 Km

Il sole sorge alle ore 06:16

Il sole tramonta alle ore 19:03

Data e Ora Cielo e Fenomeni T °C DP °C Um. % Pres. hPa Vis. km Vento km/h
Oggi h: 08:50 poco_nuvoloso Poco Nuvoloso 29 22 66 1010 10 N 5.5
Oggi h: 08:20 poco_nuvoloso Poco Nuvoloso 28 22 69 1010 10 N 3.7
Oggi h: 07:50 poco_nuvoloso Poco Nuvoloso 27 21 69 1010 10 N 3.7
Oggi h: 07:20 poco_nuvoloso Poco Nuvoloso 27 21 69 1010 10 N 5.5
Oggi h: 06:50 poco_nuvoloso Poco Nuvoloso 26 21 73 1010 10 SE 7.4
Oggi h: 06:20 nuvoloso Nuvoloso 26 21 73 1010 10 N 5.5
Oggi h: 05:50 poco_nuvoloso Poco Nuvoloso 26 21 73 1010 10 N 5.5
Oggi h: 05:20 poco_nuvoloso Poco Nuvoloso 26 21 73 1010 10 SE 7.4
Oggi h: 04:50 poco_nuvoloso Poco Nuvoloso 26 21 73 1010 10 N 5.5
Oggi h: 04:20 poco_nuvoloso Poco Nuvoloso 26 22 78 1010 10 N 3.7
Oggi h: 03:50 poco_nuvoloso Poco Nuvoloso 26 22 78 1010 10 N 5.5
Oggi h: 03:20 poco_nuvoloso Poco Nuvoloso 26 22 78 1010 10 N 5.5
Oggi h: 02:50 poco_nuvoloso Poco Nuvoloso 26 22 78 1010 10 N 5.5
Oggi h: 02:20 nuvoloso Nuvoloso 27 22 74 1010 10 N 5.5
Oggi h: 01:50 nuvoloso Nuvoloso 27 22 74 1010 10 N 3.7
Oggi h: 01:20 nuvoloso Nuvoloso 27 22 74 1010 10 E/SE 7.4
Oggi h: 00:50 poco_nuvoloso Poco Nuvoloso 27 22 74 1010 10 E 7.4
Oggi h: 00:20 poco_nuvoloso Poco Nuvoloso 27 22 74 1010 10 E 7.4
Ieri h: 23:50 poco_nuvoloso Poco Nuvoloso 27 22 74 1010 10 N 5.5
Ieri h: 23:20 poco_nuvoloso Poco Nuvoloso 27 22 74 1010 10 N/NE 7.4
Ieri h: 22:50 poco_nuvoloso Poco Nuvoloso 28 22 69 1010 10 N/NE 9.3
Ieri h: 22:20 sereno Sereno 28 22 69 1010 10 N/NE 9.3
Ieri h: 21:50 sereno Sereno 28 22 69 1010 10 N/NE 11.1
Ieri h: 21:20 sereno Sereno 28 22 69 1010 10 N/NE 9.3
Ieri h: 20:50 sereno Sereno 28 22 69 1010 10 N/NO 9.3
Ieri h: 20:20 sereno Sereno 29 21 62 1010 10 N/NO 14.8
Ieri h: 19:50 sereno Sereno 29 21 62 1009 10 N/NO 16.7
Ieri h: 19:20 sereno Sereno 29 21 62 1009 10 N/NO 14.8
Ieri h: 18:50 sereno Sereno 29 21 62 1009 10 N/NO 16.7
Ieri h: 18:20 sereno Sereno 30 21 58 1009 10 N/NO 16.7
Ieri h: 17:50 sereno Sereno 30 21 58 1009 10 N/NO 20.3
Ieri h: 17:20 sereno Sereno 31 20 52 1009 10 N/NO 20.3
Ieri h: 16:50 sereno Sereno 31 20 52 1009 10 N/NO 22.2
Ieri h: 16:20 sereno Sereno 31 21 55 1009 10 NO 22.2
Ieri h: 15:50 poco_nuvoloso Poco Nuvoloso 31 20 52 1009 10 NO 22.2
Ieri h: 15:20 poco_nuvoloso Poco Nuvoloso 32 19 46 1009 10 O/NO 22.2
Ieri h: 14:50 poco_nuvoloso Poco Nuvoloso 32 20 49 1009 10 NO 22.2
Ieri h: 14:20 poco_nuvoloso Poco Nuvoloso 32 20 49 1009 10 O/NO 22.2
Ieri h: 13:50 poco_nuvoloso Poco Nuvoloso 32 21 52 1009 10 O 20.3
Ieri h: 13:20 poco_nuvoloso Poco Nuvoloso 32 21 52 1009 10 O 18.5
Ieri h: 12:50 poco_nuvoloso Poco Nuvoloso 31 21 55 1009 10 O/NO 16.7
Ieri h: 12:20 poco_nuvoloso Poco Nuvoloso 31 20 52 1009 10 O 14.8
Ieri h: 11:50 poco_nuvoloso Poco Nuvoloso 31 20 52 1010 10 O/NO 13
Ieri h: 11:20 poco_nuvoloso Poco Nuvoloso 31 20 52 1010 10 N/NO 9.3
Ieri h: 10:50 poco_nuvoloso Poco Nuvoloso 31 18 45 1010 10 N/NO 9.3
Ieri h: 10:20 poco_nuvoloso Poco Nuvoloso 30 19 51 1010 10 N/NE 9.3
Ieri h: 09:50 poco_nuvoloso Poco Nuvoloso 29 20 58 1010 10 N 7.4